Date,TemperatureHighF,TemperatureAvgF,TemperatureLowF,DewpointHighF,DewpointAvgF,DewpointLowF,HumidityHigh,HumidityAvg,HumidityLow,PressureMaxIn,PressureMinIn,WindSpeedMaxMPH,WindSpeedAvgMPH,GustSpeedMaxMPH,PrecipitationSumIn
2013-2-1,60.8,48.1,35.8,42.3,34.3,26.6,72,60,39,30.39,30.18,13,5,15,0.00
2013-2-2,67.0,53.9,41.9,51.4,42.2,36.2,85,66,36,30.29,30.14,12,3,16,0.00
2013-2-3,67.8,51.5,35.2,46.5,38.0,30.3,91,64,26,30.30,29.98,7,1,9,0.00
2013-2-4,65.0,57.5,53.1,57.6,48.6,35.2,95,74,45,29.98,29.79,13,3,14,0.00
2013-2-5,65.1,58.3,53.0,60.9,56.3,51.7,97,93,83,30.00,29.86,6,0,8,0.00
2013-2-6,61.4,57.3,53.0,59.2,55.8,51.9,97,94,90,30.03,29.90,13,4,15,0.00
2013-2-7,68.9,59.9,54.5,60.7,56.3,50.1,97,88,71,30.01,29.80,15,4,20,0.00
2013-2-8,63.8,53.0,45.2,50.0,43.6,38.2,86,72,40,30.22,30.01,15,5,18,0.00
2013-2-9,56.7,48.4,43.6,54.9,44.6,39.9,94,87,70,30.15,29.78,17,6,17,0.06
2013-2-10,67.2,59.4,48.1,63.8,48.0,29.3,95,71,25,30.00,29.65,20,3,26,0.34
2013-2-11,55.5,50.8,48.2,48.3,41.9,35.6,90,72,47,30.14,29.98,7,2,9,0.02
2013-2-12,50.9,48.2,45.2,48.6,46.0,42.6,95,92,85,30.06,29.80,14,3,15,0.71
2013-2-13,50.2,43.8,39.7,43.0,39.0,36.7,91,83,70,30.15,29.95,13,2,19,0.00
2013-2-14,66.2,48.9,34.1,44.0,37.7,32.0,96,70,28,30.11,30.00,11,1,14,0.00
2013-2-15,51.9,46.5,38.5,43.0,33.7,23.6,93,63,35,30.36,30.05,14,5,15,0.01
2013-2-16,52.2,42.0,32.9,36.2,30.2,22.9,84,64,42,30.39,30.18,13,2,13,0.00
2013-2-17,69.2,54.7,36.9,43.8,35.0,30.4,79,51,26,30.18,29.93,22,7,25,0.00
2013-2-18,63.1,57.2,52.4,55.8,45.8,36.6,80,67,46,30.07,29.81,21,10,25,0.00
2013-2-19,61.4,51.6,41.0,41.2,32.3,24.8,68,49,26,30.32,30.07,11,3,13,0.00
2013-2-20,52.6,45.3,40.8,40.0,37.3,30.7,88,75,43,30.19,29.83,16,8,18,0.12
2013-2-21,48.2,44.9,42.9,45.4,38.9,34.6,92,80,66,29.90,29.64,18,8,20,0.09
2013-2-22,49.2,43.0,35.7,42.5,33.2,29.4,91,69,50,30.11,29.90,13,5,14,0.00
2013-2-23,55.5,44.1,34.3,38.3,31.1,27.3,80,62,40,30.06,29.92,12,3,12,0.00
2013-2-27,42.5,42.5,42.5,29.2,29.2,29.2,59,59,59,30.16,30.16,5,5,15,0.00
2013-2-28,57.1,46.2,34.4,33.4,29.9,27.1,81,55,34,30.25,30.13,15,5,18,0.00